Regional Weather Roundup
Issued by NWS

Home | Current Version | Previous Version | Graphics & Text | Print | Product List | Glossary On
Versions: 1 2 3 4 5 6 7 8 9 10 11 12 13 14 15 16 17 18 19 20 21 22 23 24 25 26 27 28 29 30 31 32 33 34 35 36 37 38 39 40 41 42 43 44 45 46 47 48 49 50
000
ASUS43 KLMK 250710
RWRKY
KENTUCKY REGIONAL WEATHER ROUNDUP
NATIONAL WEATHER SERVICE LOUISVILLE KY
300 AM EDT THU AUG 25 2016

NOTE "FAIR" INDICATES FEW OR NO CLOUDS BELOW 12,000 FEET
WITH NO SIGNIFICANT WEATHER AND/OR OBSTRUCTIONS TO VISIBILITY.

KYZ001>023-026-027-061>063-070>075-250800-
WESTERN AND SOUTH CENTRAL KENTUCKY

CITY           SKY/WX    TMP DP  RH WIND       PRES   REMARKS
PADUCAH        CLEAR     75  72  90 CALM      30.07S
HENDERSON      CLEAR     75  72  88 CALM      30.06S
OWENSBORO      CLEAR     76  76 100 S5        30.08S
HOPKINSVILLE   CLEAR     78  74  88 CALM      30.10R
BOWLING GREEN  CLEAR     76  73  91 CALM      30.11R
GLASGOW        CLEAR     73  73 100 CALM      30.12S
$$

KYZ024-025-028>034-038-045-046-053-250800-
NORTH CENTRAL KENTUCKY

CITY           SKY/WX    TMP DP  RH WIND       PRES   REMARKS
LOUISVILLE/SDF PTCLDY    81  73  76 SW7       30.08R
LOUISVILLE/LOU CLEAR     79  72  79 CALM      30.09R
FORT KNOX      CLEAR     76  73  90 S5        30.09R
$$

KYZ035>037-039>044-047>052-055>060-089>105-250800-
NORTHEAST KENTUCKY

CITY           SKY/WX    TMP DP  RH WIND       PRES   REMARKS
LEXINGTON      CLEAR     74  70  87 S5        30.12S
COVINGTON      PTCLDY    77  74  90 SW7       30.08R
FRANKFORT      CLEAR     76  71  85 SW7       30.10R
$$

KYZ054-064>069-076>088-106>120-250800-
SOUTHEAST KENTUCKY

CITY           SKY/WX    TMP DP  RH WIND       PRES   REMARKS
JACKSON        CLEAR     73  69  87 CALM      30.15F
LONDON         CLEAR     71  68  90 CALM      30.16S
SOMERSET       CLEAR     72  72 100 CALM      30.15S
MIDDLESBORO    CLOUDY    69  69 100 CALM      30.18S
MONTICELLO     SUNNY    N/A N/A N/A VRB3      30.16S
$$





USA.gov is the U.S. government's official web portal to all federal, state and local government web resources and services.